Regional Weather Roundup
Issued by NWS

Home | Current Version | Previous Version | Text Only | Print | Product List | Glossary Off
Versions: 1 2 3 4 5 6 7 8 9 10 11 12 13 14 15 16 17 18 19 20 21 22 23 24 25 26 27 28 29 30 31 32 33 34 35 36 37 38 39 40 41 42 43 44 45 46 47 48 49 50

000
ASUS43 KOAX 180602
RWRNE

WEATHER ROUNDUP FOR NEBRASKA
NATIONAL WEATHER SERVICE OMAHA NE
1200 AM CST SUN FEB 18 2018

NOTES: SATELLITE DATA IS BEING USED TO AUGMENT CLOUD COVER ABOVE
       12000 FEET.
       "FAIR" INDICATES FEW OR NO CLOUDS BELOW 12,000 FEET WITH NO
       SIGNIFICANT WEATHER AND/OR OBSTRUCTIONS TO VISIBILITY.


NEZ001>004-019>022-054>056-180700-
NEBRASKA PANHANDLE

CITY           SKY/WX    TMP DP  RH WIND       PRES   REMARKS
SCOTTSBLUFF    PTCLDY    43  19  38 SW10      29.66F
6HR MIN TEMP:  39; 6HR MAX TEMP:  48;

ALLIANCE       PTCLDY    37  18  46 S16       29.67F WCI  28
6HR MIN TEMP:  32; 6HR MAX TEMP:  45;

CHADRON        CLOUDY    42  24  49 S22       29.57F
6HR MIN TEMP:  27; 6HR MAX TEMP:  43;

GORDON         FAIR      38  22  51 SW24G31   29.62F WCI  27
6HR MIN TEMP:  31; 6HR MAX TEMP:  39;

KIMBALL        PTCLDY    37  15  41 SW17      29.71F WCI  28
SIDNEY         CLEAR     32  16  51 S14       29.74F WCI  22
6HR MIN TEMP:  32; 6HR MAX TEMP:  47;

$$

NEZ057>060-069>072-079>082-180700-
SOUTHWEST NEBRASKA

CITY           SKY/WX    TMP DP  RH WIND       PRES   REMARKS
NORTH PLATTE   CLEAR     39  19  44 S17G23    29.81F WCI  30
6HR MIN TEMP:  30; 6HR MAX TEMP:  39;

IMPERIAL       CLEAR     36  18  48 S18G25    29.82F WCI  26
6HR MIN TEMP:  34; 6HR MAX TEMP:  43;

LEXINGTON      CLEAR     35  22  57 SE12      29.90F WCI  27
MCCOOK         CLEAR     38  18  44 S13G25    29.89F WCI  30
6HR MIN TEMP:  37; 6HR MAX TEMP:  46;

OGALLALA       CLEAR     38  21  49 S24G35    29.77F WCI  27
$$

NEZ005>010-023>029-035>040-094-180700-
NORTH CENTRAL NEBRASKA

CITY           SKY/WX    TMP DP  RH WIND       PRES   REMARKS
VALENTINE      MOCLDY    35  23  61 S15       29.73F WCI  25
6HR MIN TEMP:  33; 6HR MAX TEMP:  37;

AINSWORTH      PTCLDY    33  25  75 S20G31    29.76F WCI  21
BROKEN BOW     CLEAR     33  23  66 S14       29.87F WCI  23
6HR MIN TEMP:  32; 6HR MAX TEMP:  40;

O`NEILL        PTCLDY    31  27  85 SE14G21   29.88F WCI  21
ORD            PTCLDY    33  24  69 SE14G24   29.90F WCI  23
6HR MIN TEMP:  31; 6HR MAX TEMP:  41;

THEDFORD       CLEAR     37  22  54 S17G26    29.79F WCI  27
$$

NEZ041-046>049-061>064-073>077-083>087-180700-
SOUTH CENTRAL NEBRASKA

CITY           SKY/WX    TMP DP  RH WIND       PRES   REMARKS
GRAND ISLAND   CLEAR     33  23  66 S16       29.98F WCI  23
6HR MIN TEMP:  32; 6HR MAX TEMP:  40;

AURORA         CLEAR     31  24  73 S15       29.99F WCI  21
HASTINGS       CLEAR     33  21  61 SE14      29.98F WCI  23
6HR MIN TEMP:  32; 6HR MAX TEMP:  42;

HEBRON         CLEAR     33  23  66 SE10      30.05F WCI  25
HOLDREGE       CLEAR     33  22  64 S14G21    29.94F WCI  23
KEARNEY        CLEAR     33  22  63 S18       29.95F WCI  22
YORK           CLEAR     32  25  74 S14       30.02F WCI  22
$$

NEZ011>018-030>034-042>045-180700-
NORTHEAST NEBRASKA

CITY           SKY/WX    TMP DP  RH WIND       PRES   REMARKS
NORFOLK        CLEAR     29  26  89 SE13      29.98F WCI  19
6HR MIN TEMP:  26; 6HR MAX TEMP:  37;

ALBION         CLOUDY    31  27  83 SE9       29.96F WCI  23
BLAIR          CLEAR     31  26  80 SE10      30.04F WCI  22
COLUMBUS       CLEAR     30  26  85 SE8       30.02F WCI  22
FREMONT        CLEAR     31  26  82 SE8       30.05F WCI  24
TEKAMAH        CLEAR     28  25  88 SE9       30.06F WCI  19
6HR MIN TEMP:  27; 6HR MAX TEMP:  34;

WAYNE          CLEAR     27  26  96 SE12      30.00F WCI  17
$$

NEZ050>053-065>068-078-088>093-180700-
SOUTHEAST NEBRASKA

CITY           SKY/WX    TMP DP  RH WIND       PRES   REMARKS
LINCOLN        CLEAR     28  21  75 S5        30.07F WCI  23
6HR MIN TEMP:  23; 6HR MAX TEMP:  42;

OMAHA EPPLEY   CLEAR     28  22  78 S10       30.08F WCI  19
6HR MIN TEMP:  26; 6HR MAX TEMP:  37;

BEATRICE       CLEAR     34  24  66 SE9       30.07F WCI  27
FALLS CITY     CLEAR     27  18  69 SE7       30.13F WCI  19
6HR MIN TEMP:  26; 6HR MAX TEMP:  45;

NEBRASKA CITY  CLEAR     29  25  83 S6        30.10F WCI  23
PLATTSMOUTH    CLEAR     29  24  83 SE9       30.08F WCI  20
$$

NEZ044-045-051>053-067-180700-
OMAHA AREA

CITY           SKY/WX    TMP DP  RH WIND       PRES   REMARKS
OMAHA EPPLEY   CLEAR     28  22  78 S10       30.08F WCI  19
6HR MIN TEMP:  26; 6HR MAX TEMP:  37;

BLAIR          CLEAR     31  26  80 SE10      30.04F WCI  22
FREMONT        CLEAR     31  26  82 SE8       30.05F WCI  24
MILLARD        CLEAR     29  24  83 SE6       30.08F WCI  23
OFFUTT AFB     CLEAR     25  22  87 SE6       30.07F WCI  18
PLATTSMOUTH    CLEAR     29  24  83 SE9       30.08F WCI  20
WAHOO          FAIR      30  25  84 SE8       30.06F WCI  22
$$




USA.gov is the U.S. government's official web portal to all federal, state and local government web resources and services.